Weather in Peschanoye

Russia / Chelyabinsk Oblast     54°13′27″N   62°05′56″E
temp.,
°C
wind,
m/s
gust,
m/s
humid.,
%
clouds,
%
prec.,
mm/h
press.,
hPa
HPBL,
m
4 july, mon
mon423:00+15e227915 0.1 100416
02:00+13nne339151 0.7 100345
05:00+13n4997100 3.0 1003296
08:00+13nne61094100 0.1 1003481
11:00+14nne71191100 0.2 1003720
14:00+14nne81187100 0.1 1004875
17:00+16nne8116896 0.2 10041429
20:00+14nne8127021 0.1 1005915
5 july, tue
tue523:00+10n713815 0.1 1007549
02:00+7n6129321 0.0 1007417
05:00+7n6119558 0.0 1008434
08:00+10n61085100 0.0 1009616
11:00+11n6981100 0.0 1009758
14:00+13n687764 0.2 1010848
17:00+14nne687361 0.6 1011834
20:00+13n498294 0.3 1011389
6 july, wed
wed623:00+10nnw228739 0.3 101215
02:00+9nw338816 0.0 101238
05:00+9nnw338860 0.0 101239
08:00+12n368196 0.0 1013208
11:00+14n346847 0.0 1013398
14:00+18nne324850 0.0 10121836
17:00+18n1255100 0.0 1013768
20:00+15nw3369100 0.0 101357
7 july, thu
thu723:00+14nnw2266100 0.0 101428
02:00+14n236758 0.0 101437
05:00+12n347571 0.0 101570
08:00+15n45736 0.0 1016295
11:00+19nne456058 0.0 10161021
14:00+21nne5556100 0.1 10161749
17:00+21nne565717 0.2 10161456
20:00+18ne368031 0.3 1016163
8 july, fri
fri823:00+15nne33915 0.4 101738
02:00+14n33935 0.0 101735
05:00+14n33945 0.0 101849
08:00+18n348138 0.0 1018306
11:00+22n22659 0.0 10181043
14:00+24nnw335713 0.6 10171449
17:00+24nne235816 1.8 10161129
20:00+21ene227357 0.8 101620